User: anonymous   Login
Location: Unspecified
(0.0000°N, 0.0000°E)
Time: 11:59:50
(UTC+00:00)
Language:

UFO 10 - Orbit

View from above orbital plane
View from above orbital plane
View from above satellite
View from above satellite

Ground track
Ground track

The orbit data is extracted from the following two-line orbital elements,

1 25967U 99063A   17283.85378448 0.00000000  00000-0  00000-0 0    07
2 25967   6.7298  38.5979 0004001 131.6016 228.4811  1.00270000    03
Epoch (UTC): 10 October 2017 20:29:26
Eccentricity: 0.0004001
inclination: 6.7298°
perigee height: 35770 km
apogee height: 35803 km
right ascension of ascending node: 38.5979°
argument of perigee: 131.6016°
revolutions per day: 1.00270000
mean anomaly at epoch: 228.4811°
orbit number at epoch: 0

The dashed part of the orbit path shows where the satellite is in the earth's shadow,  

DLR